This is the latest recevied weather packets stored in our database for station/object KD8NVS-13. If no packets are shown the sender has not sent any weather packets the latest 10 day(s).
| Time | Temp. | Humidity | Pressure | Rain* | Wind** | Luminosity | Snow |
|---|---|---|---|---|---|---|---|
| 1777582151 | 13.33° C | 48% | 1004.9 hPa | 0 mm | - | 516 W/m² | - |
| 1777581850 | 13.33° C | 48% | 1005.2 hPa | 0 mm | - | 190 W/m² | - |
| 1777581550 | 13.33° C | 49% | 1005.2 hPa | 0 mm | - | 182 W/m² | - |
| 1777581244 | 12.78° C | 50% | 1005.2 hPa | 0 mm | - | 176 W/m² | - |
| 1777580939 | 12.78° C | 51% | 1005.2 hPa | 0 mm | - | 222 W/m² | - |
| 1777580634 | 12.78° C | 50% | 1005.2 hPa | 0 mm | - | 205 W/m² | - |
| 1777580329 | 12.22° C | 53% | 1005.2 hPa | 0 mm | - | 163 W/m² | - |
| 1777580026 | 12.22° C | 53% | 1005.2 hPa | 0 mm | - | 155 W/m² | - |
| 1777579723 | 11.67° C | 52% | 1005.2 hPa | 0 mm | - | 147 W/m² | - |
| 1777579420 | 11.67° C | 53% | 1005.2 hPa | 0 mm | - | 160 W/m² | - |
| 1777579116 | 12.22° C | 53% | 1005.2 hPa | 0 mm | - | 153 W/m² | - |
| 1777578809 | 12.22° C | 54% | 1005.2 hPa | 0 mm | - | 109 W/m² | - |
| 1777578505 | 12.22° C | 52% | 1005.2 hPa | 0 mm | - | 133 W/m² | - |
| 1777578200 | 12.22° C | 51% | 1004.9 hPa | 0 mm | - | 181 W/m² | - |
| 1777577896 | 12.22° C | 51% | 1005.2 hPa | 0 mm | - | 160 W/m² | - |
| 1777577592 | 12.22° C | 54% | 1005.2 hPa | 0 mm | - | 137 W/m² | - |
| 1777577289 | 11.67° C | 58% | 1005.2 hPa | 0 mm | - | 122 W/m² | - |
| 1777576985 | 12.22° C | 57% | 1005.2 hPa | 0 mm | - | 210 W/m² | - |
| 1777576681 | 11.67° C | 57% | 1005.2 hPa | 0 mm | - | 165 W/m² | - |
| 1777576381 | 12.22° C | 56% | 1005.2 hPa | 0 mm | - | 132 W/m² | - |
| 1777576077 | 11.67° C | 57% | 1005.2 hPa | 0 mm | - | 106 W/m² | - |
| 1777575773 | 11.67° C | 58% | 1005.5 hPa | 0 mm | - | 91 W/m² | - |
| 1777575470 | 11.11° C | 65% | 1005.2 hPa | 0 mm | - | 134 W/m² | - |
| 1777575165 | 11.11° C | 69% | 1005.5 hPa | 0 mm | - | 179 W/m² | - |
| 1777574861 | 10.56° C | 68% | 1005.5 hPa | 0 mm | - | 223 W/m² | - |
* Rain latest hour (hover to see other rain measurements)
** Current wind speed in m/s (hover to see current wind gust speed)